sat.trackr.live / text

‹ back to catalog

STARLINK-31388

NORAD 59565 · 2024-076B

PAYLOAD ACTIVE UNKNOWN

§ Identity

Operator
Country
US
Launch date
2024-04-23
Launch site
AFETR
Launch vehicle
Mass (kg)
RCS (m²)

Purposes: comms

External: N2YO · Heavens-Above · Gunter

§ Orbital elements

Epoch: 2026-09-21T06:47:51.236160Z

Period
94.27 min
Inclination
43.0052°
Eccentricity
0.0001326
Mean motion
15.27575441 rev/d
Perigee alt
482.2 km
Apogee alt
484.0 km
Semi-major
6,861.2 km
B*
3.7672e-5
RAAN
344.6264°
Arg perigee
266.1462°
Mean anomaly
93.9238°
Rev number
13,641

§ Raw data

STARLINK-313881 59565U 24076B   26264.28323190  .00000774  00000+0  37672-4 0  99932 59565  43.0052 344.6264 0001326 266.1462  93.9238 15.27575441136414

JSON: /api/v1/satellites/59565 · /tle

For live sub-satellite position, see the globe view (requires WebGL).

§ Visibility from observer

Set your observer location to see the next 7 days of passes ≥ 10°. The values pass through the URL so the page stays shareable.

No JS? Fill the form by hand. The geolocation button needs JavaScript.